User: anonymous   Login
Location: Bogis-Bossey
(46.3500°N, 6.1667°E)
Time: 06:34:06
(UTC+00:00)
Language:

Cosmos 1315 Rocket - Orbit

View from above orbital plane
View from above orbital plane
View from above satellite
View from above satellite

Ground track
Ground track

The orbit data is extracted from the following two-line orbital elements,

1 12904U 81103B   22339.82040859  .00002145  00000-0  13919-3 0  9992
2 12904  81.1734 151.9413 0027367 329.4063  30.5563 15.07383623793232
Epoch (UTC): 05 December 2022 19:41:23
Eccentricity: 0.0027367
inclination: 81.1734°
perigee height: 525 km
apogee height: 563 km
right ascension of ascending node: 151.9413°
argument of perigee: 329.4063°
revolutions per day: 15.07383623
mean anomaly at epoch: 30.5563°
orbit number at epoch: 79323

The dashed part of the orbit path shows where the satellite is in the earth's shadow,  

DLR